Location: Wolfsburg
(52.4330°N, 10.8000°E)
Time: 11:17:44
(UTC+02:00)

ISS - Visible Passes

Search period start: 02 July 2020 00:00
Search period end: 12 July 2020 00:00
Orbit: 417 x 420 km, 51.6° (Epoch: 02 July)

Date Brightness Start Highest point End Pass type
(mag) Time Alt. Az. Time Alt. Az. Time Alt. Az.
02 Jul -1.4 03:22:58 10° SSE 03:24:20 12° SE 03:25:42 10° ESE visible
03 Jul -2.7 04:09:39 10° SW 04:12:41 32° SSE 04:15:43 10° E visible
04 Jul -2.3 03:23:02 15° SSW 03:24:57 23° SSE 03:27:41 10° E visible
05 Jul -1.9 02:36:42 16° SSE 02:37:13 17° SE 02:39:29 10° E visible
05 Jul -3.5 04:10:13 10° WSW 04:13:30 53° SSE 04:16:48 10° E visible
06 Jul -1.3 01:50:20 11° SE 01:50:20 11° SE 01:50:50 10° ESE visible
06 Jul -3.2 03:23:14 15° SW 03:25:40 41° SSE 03:28:51 10° E visible
07 Jul -2.8 02:36:48 25° S 02:37:51 31° SSE 02:40:52 10° E visible
07 Jul -3.8 04:11:00 10° WSW 04:14:22 74° S 04:17:44 10° E visible
08 Jul -2.4 01:50:18 23° SE 01:50:18 23° SE 01:52:47 10° E visible
08 Jul -3.8 03:23:12 11° WSW 03:26:28 64° SSE 03:29:48 10° E visible
09 Jul -1.5 01:03:45 13° ESE 01:03:45 13° ESE 01:04:31 10° ESE visible
09 Jul -3.6 02:36:39 22° SW 02:38:34 52° SSE 02:41:51 10° E visible
09 Jul -3.8 04:11:52 10° W 04:15:14 80° S 04:18:36 10° E visible
10 Jul -3.3 01:50:01 35° S 01:50:41 40° SSE 01:53:52 10° E visible
10 Jul -3.8 03:23:56 10° W 03:27:18 79° S 03:30:40 10° E visible
11 Jul -2.8 01:03:14 29° SE 01:03:14 29° SE 01:05:50 10° E visible
11 Jul -3.9 02:36:07 11° WSW 02:39:20 73° S 02:42:42 10° E visible
11 Jul -3.8 04:12:43 10° W 04:16:04 68° SSW 04:19:24 10° ESE visible
